Simultaneous Nadir Overpasses (SNOs) Predictions

Prediction of SNOs between GOES-16 and NOAA-19 Satellite Orbit:

Table of predicted SNOs for the next 14.0 days since TLE Epoch: 11/21/2020
Index Date Time (GOES-16) GOES-16 Lat,Lon NOAA-19 Lat,Lon Distance(km) Time Diff (sec)
1 11/21/2020 11:08:25 -0.02, -75.17 -0.63, -72.56 297.84 80
2 11/23/2020 23:29:25 0.02, -75.15 -0.52, -77.52 270.03 80
3 11/24/2020 23:20:22 0.02, -75.16 0.15, -74.66 57.28 80
4 11/25/2020 23:08:40 0.02, -75.17 0.82, -71.80 384.73 80
5 11/28/2020 11:29:34 -0.01, -75.21 0.33, -76.74 174.35 80
6 11/29/2020 11:15:11 -0.01, -75.22 -0.32, -73.88 153.30 80
7 11/30/2020 11:03:29 -0.01, -75.23 -0.97, -71.02 480.99 80
8 12/01/2020 23:36:09 0.00, -75.23 -0.82, -78.84 411.37 80
9 12/02/2020 23:24:27 0.00, -75.24 -0.15, -75.98 83.41 80
10 12/03/2020 23:15:24 -0.00, -75.26 0.52, -73.12 244.63 80
